EA5CEE Weather Reports


Display with metric or nautical units.
time (UTC)temp
F
wind
direction
speed
MPH
gust
MPH
rain 1hr
in
rain 24hr
in
rain mn
in
humidity
%
barometer
mb
20260507133024 65 47 13.0 19.0 0.00 0.00 0.00 85 1009.3
20260507131524 65 76 12.0 17.0 0.00 0.00 0.00 84 1009.4
20260507130023 65 40 12.0 17.0 0.00 0.00 0.00 83 1009.7
20260507124522 65 82 10.0 16.0 0.00 0.00 0.00 81 1009.9
20260507123024 65 58 13.0 17.0 0.00 0.00 0.00 80 1010.0
20260507121523 65 61 14.0 17.0 0.00 0.00 0.00 80 1009.9
20260507120020 66 56 14.0 20.0 0.00 0.00 0.00 80 1009.9
20260507114519 66 56 14.0 18.0 0.00 0.00 0.00 83 1010.0
20260507113118 65 58 13.0 17.0 0.00 0.00 0.00 80 1010.4
20260507111518 66 49 15.0 18.0 0.00 0.00 0.00 80 1010.3
20260507110016 66 82 13.0 19.0 0.00 0.00 0.00 81 1010.4
20260507104515 65 74 12.0 16.0 0.00 0.00 0.00 80 1010.6
20260507103014 65 63 12.0 16.0 0.00 0.00 0.00 80 1010.8
20260507101514 65 58 11.0 19.0 0.00 0.00 0.00 81 1010.6
20260507100015 65 63 13.0 20.0 0.00 0.00 0.00 82 1010.6
20260507094515 65 43 14.0 18.0 0.00 0.00 0.00 81 1010.7
20260507093015 65 32 13.0 19.0 0.00 0.00 0.00 82 1010.7
20260507091510 65 73 10.0 19.0 0.00 0.00 0.00 80 1010.8
20260507090010 65 69 12.0 18.0 0.00 0.00 0.00 80 1010.8
20260507084529 65 70 14.0 16.0 0.00 0.00 0.00 78 1010.9
20260507083007 65 25 8.0 14.0 0.00 0.00 0.00 79 1010.7
20260507081518 65 70 9.0 13.0 0.00 0.00 0.00 76 1010.8
20260507080005 65 62 8.0 15.0 0.00 0.00 0.00 76 1010.7
20260507074507 65 69 5.0 9.0 0.00 0.00 0.00 76 1010.6
20260507073004 64 55 7.0 11.0 0.00 0.00 0.00 77 1010.4
20260507071503 65 56 7.0 13.0 0.00 0.00 0.00 76 1010.2
20260507070107 64 32 7.0 13.0 0.00 0.00 0.00 76 1010.0
20260507064559 63 45 7.0 11.0 0.00 0.00 0.00 77 1010.1
20260507063057 63 23 7.0 11.0 0.00 0.00 0.00 80 1010.1
20260507061554 62 40 4.0 8.0 0.00 0.00 0.00 81 1010.0
20260507060053 62 18 4.0 7.0 0.00 0.00 0.00 82 1010.2
20260507054609 62 32 5.0 9.0 0.00 0.00 0.00 83 1010.0
20260507053103 63 53 7.0 13.0 0.00 0.00 0.00 86 1010.0
20260507051556 63 56 10.0 16.0 0.00 0.00 0.00 87 1009.8
20260507050054 63 50 7.0 15.0 0.00 0.00 0.00 88 1009.6
20260507044555 63 47 11.0 15.0 0.00 0.00 0.00 88 1009.6
20260507043048 63 68 12.0 16.0 0.00 0.00 0.00 89 1009.4
20260507041559 62 44 11.0 17.0 0.00 0.00 0.00 88 1009.4
20260507040044 62 54 10.0 15.0 0.00 0.00 0.00 88 1009.3
20260507034544 62 68 11.0 15.0 0.00 0.00 0.00 88 1009.3
20260507033043 62 58 10.0 15.0 0.00 0.00 0.00 89 1009.3
20260507031542 62 46 10.0 14.0 0.00 0.00 0.00 89 1009.5
20260507030037 63 63 7.0 13.0 0.00 0.00 0.00 88 1009.6
20260507024635 62 74 7.0 11.0 0.00 0.00 0.00 87 1009.7
20260507023033 62 49 4.0 6.0 0.00 0.00 0.00 84 1009.9
20260507021536 62 44 3.0 6.0 0.00 0.00 0.00 85 1010.0
20260507020030 62 30 2.0 5.0 0.00 0.00 0.00 83 1010.2
20260507014531 62 18 2.0 5.0 0.00 0.00 0.00 83 1010.3
20260507013029 62 21 3.0 5.0 0.00 0.00 0.00 84 1010.0
20260507011527 62 4 2.0 5.0 0.00 0.00 0.00 83 1010.0
20260507010037 62 21 2.0 5.0 0.00 0.00 0.00 83 1010.1
20260507004527 62 27 3.0 8.0 0.00 0.00 0.00 84 1010.1
20260507003023 62 20 3.0 6.0 0.00 0.00 0.00 84 1010.2
20260507001520 62 20 4.0 7.0 0.00 0.00 0.00 84 1010.4
20260507000023 62 35 4.0 9.0 0.00 0.00 0.00 85 1010.5
20260506234516 63 21 5.0 9.0 0.00 0.00 0.00 85 1010.7
20260506233014 63 50 4.0 9.0 0.00 0.00 0.00 86 1010.6
20260506231611 63 67 4.0 8.0 0.00 0.00 0.00 87 1010.7
20260506230009 63 46 5.0 7.0 0.00 0.00 0.00 87 1010.8
20260506224509 63 23 3.0 7.0 0.00 0.00 0.00 87 1010.7
20260506223008 63 65 4.0 7.0 0.00 0.00 0.00 87 1010.7
20260506221510 63 68 5.0 8.0 0.00 0.00 0.00 87 1010.7
20260506220007 63 44 3.0 6.0 0.00 0.00 0.00 87 1010.9
20260506214506 63 61 3.0 6.0 0.00 0.00 0.00 86 1011.0
20260506213005 63 68 3.0 6.0 0.00 0.00 0.00 86 1011.3
20260506211505 63 72 4.0 8.0 0.00 0.00 0.00 86 1011.2
20260506210002 63 92 7.0 9.0 0.00 0.00 0.00 86 1011.0
20260506204601 63 49 5.0 7.0 0.00 0.00 0.00 86 1011.0
20260506203059 63 74 6.0 8.0 0.00 0.00 0.00 87 1010.8
20260506201600 63 63 7.0 10.0 0.00 0.00 0.00 87 1010.7
20260506200057 63 63 7.0 11.0 0.00 0.00 0.00 86 1010.5
20260506194557 63 49 7.0 11.0 0.00 0.00 0.00 86 1010.2
20260506193058 63 62 9.0 11.0 0.00 0.00 0.00 86 1010.1
20260506191601 63 66 10.0 14.0 0.00 0.00 0.00 86 1009.8
20260506190054 63 51 10.0 13.0 0.00 0.00 0.00 85 1009.8
20260506184557 63 75 10.0 13.0 0.00 0.00 0.00 85 1009.7
20260506183102 63 61 9.0 13.0 0.00 0.00 0.00 85 1009.5
20260506181603 64 79 12.0 14.0 0.00 0.00 0.00 84 1009.6
20260506180049 64 58 11.0 15.0 0.00 0.00 0.00 85 1009.4
20260506174550 64 76 13.0 17.0 0.00 0.00 0.00 84 1009.6
20260506173116 64 59 12.0 16.0 0.00 0.00 0.00 85 1009.4
20260506171547 64 49 13.0 18.0 0.00 0.00 0.00 85 1009.5
20260506170103 65 68 13.0 17.0 0.00 0.00 0.00 84 1009.3
20260506164546 65 61 13.0 18.0 0.00 0.00 0.00 83 1009.3
20260506163054 65 79 13.0 19.0 0.00 0.00 0.00 82 1009.2
20260506161546 65 56 14.0 19.0 0.00 0.00 0.00 83 1009.3
20260506160045 65 63 15.0 20.0 0.00 0.00 0.00 83 1009.2
20260506154600 65 45 15.0 19.0 0.00 0.00 0.00 82 1009.2
20260506153040 65 58 16.0 20.0 0.00 0.00 0.00 82 1009.3
20260506151539 65 70 17.0 21.0 0.00 0.00 0.00 81 1009.3
20260506150038 65 51 16.0 20.0 0.00 0.00 0.00 79 1009.4
20260506144543 65 68 17.0 21.0 0.00 0.00 0.00 80 1009.5
20260506143036 65 59 18.0 22.0 0.00 0.00 0.00 77 1009.7
20260506141535 66 71 17.0 20.0 0.00 0.00 0.00 79 1009.7
20260506140037 65 56 16.0 22.0 0.00 0.00 0.00 80 1010.0
20260506134534 65 64 16.0 20.0 0.00 0.00 0.00 81 1009.8